When you browse on this site, cookies collect data to enhance your experience and personalize the content and advertising you see.
Visit our Privacy Policy to learn more. By continuing to use the site, you agree to this use of cookies and data.
  • en Suisse
  • Liste des pays
  • À 7 jours
  • Température de l'eau
  • Carte satellitaire
  • Carte météo
  • Widgets météo
  • user-avatar
    Se connecter

    Météo par heure à Oberursel

    Ce jour, 18 Juillet, Jeudi

    Heure Température Précipitation Vent Pression Humidité
    00:00 +16°C° 0 mm 1 m/s 742 mmHg 78%
    01:00 +16°C° 0 mm 1 m/s 742 mmHg 80%
    02:00 +16°C° 0 mm 1 m/s 742 mmHg 80%
    03:00 +15°C° 0 mm 1 m/s 741 mmHg 81%
    04:00 +15°C° 0 mm 1 m/s 741 mmHg 82%
    05:00 +16°C° 0 mm 1 m/s 741 mmHg 78%
    06:00 +16°C° 0 mm 0 m/s 741 mmHg 75%
    07:00 +17°C° 0 mm 0 m/s 741 mmHg 71%
    08:00 +19°C° 0 mm 0 m/s 741 mmHg 64%
    09:00 +23°C° 0 mm 1 m/s 742 mmHg 57%
    10:00 +25°C° 0 mm 1 m/s 742 mmHg 50%
    11:00 +26°C° 0 mm 1 m/s 742 mmHg 45%
    12:00 +27°C° 0 mm 2 m/s 741 mmHg 41%
    13:00 +28°C° 0 mm 2 m/s 741 mmHg 36%
    14:00 +28°C° 0 mm 2 m/s 741 mmHg 37%
    15:00 +28°C° 0 mm 2 m/s 741 mmHg 38%
    16:00 +28°C° 0 mm 3 m/s 741 mmHg 39%
    17:00 +27°C° 0 mm 2 m/s 741 mmHg 44%
    18:00 +26°C° 0 mm 2 m/s 741 mmHg 50%
    19:00 +25°C° 0 mm 2 m/s 741 mmHg 56%
    20:00 +23°C° 0.3 mm 1 m/s 741 mmHg 61%
    21:00 +22°C° 0.3 mm 1 m/s 742 mmHg 67%
    22:00 +21°C° 0.3 mm 1 m/s 742 mmHg 73%
    23:00 +20°C° 0 mm 1 m/s 742 mmHg 74%

    Demain, 19 Juillet, Vendredi

    Heure Température Précipitation Vent Pression Humidité
    00:00 +20°C° 0 mm 1 m/s 742 mmHg 76%
    01:00 +19°C° 0 mm 1 m/s 742 mmHg 77%
    02:00 +17°C° 0 mm 0 m/s 742 mmHg 78%
    03:00 +17°C° 0 mm 0 m/s 742 mmHg 78%
    04:00 +17°C° 0 mm 0 m/s 742 mmHg 79%
    05:00 +19°C° 0 mm 1 m/s 743 mmHg 77%
    06:00 +20°C° 0 mm 1 m/s 743 mmHg 76%
    07:00 +20°C° 0 mm 1 m/s 743 mmHg 74%
    08:00 +20°C° 0.2 mm 1 m/s 743 mmHg 75%
    09:00 +21°C° 0.2 mm 1 m/s 743 mmHg 76%
    10:00 +20°C° 0.2 mm 2 m/s 743 mmHg 77%
    11:00 +21°C° 0 mm 2 m/s 743 mmHg 71%
    12:00 +24°C° 0 mm 2 m/s 743 mmHg 64%
    13:00 +25°C° 0 mm 2 m/s 743 mmHg 58%
    14:00 +25°C° 0.2 mm 2 m/s 743 mmHg 58%
    15:00 +26°C° 0.2 mm 2 m/s 743 mmHg 58%
    16:00 +26°C° 0.2 mm 2 m/s 743 mmHg 58%
    17:00 +25°C° 0.1 mm 2 m/s 743 mmHg 61%
    18:00 +25°C° 0.1 mm 2 m/s 743 mmHg 64%
    19:00 +24°C° 0.1 mm 2 m/s 743 mmHg 67%
    20:00 +23°C° 0 mm 1 m/s 743 mmHg 70%
    21:00 +22°C° 0 mm 1 m/s 743 mmHg 74%
    22:00 +21°C° 0 mm 1 m/s 743 mmHg 77%
    23:00 +20°C° 0 mm 1 m/s 743 mmHg 79%

    Après-demain, 20 Juillet, Samedi

    Heure Température Précipitation Vent Pression Humidité
    00:00 +18°C° 0 mm 0 m/s 743 mmHg 81%
    01:00 +18°C° 0 mm 0 m/s 743 mmHg 83%
    02:00 +17°C° 0 mm 0 m/s 743 mmHg 84%
    03:00 +17°C° 0 mm 0 m/s 743 mmHg 84%
    04:00 +17°C° 0 mm 0 m/s 743 mmHg 85%
    05:00 +18°C° 0 mm 0 m/s 743 mmHg 82%
    06:00 +21°C° 0 mm 1 m/s 743 mmHg 80%
    07:00 +22°C° 0 mm 1 m/s 743 mmHg 77%
    08:00 +23°C° 0 mm 1 m/s 743 mmHg 69%
    09:00 +25°C° 0 mm 2 m/s 743 mmHg 61%
    10:00 +27°C° 0 mm 3 m/s 743 mmHg 53%
    11:00 +28°C° 0.2 mm 3 m/s 743 mmHg 52%
    12:00 +28°C° 0.2 mm 3 m/s 743 mmHg 51%
    13:00 +29°C° 0.2 mm 3 m/s 743 mmHg 50%
    14:00 +30°C° 0 mm 4 m/s 743 mmHg 47%
    15:00 +30°C° 0 mm 4 m/s 743 mmHg 43%
    16:00 +32°C° 0 mm 4 m/s 743 mmHg 39%
    17:00 +30°C° 0 mm 3 m/s 743 mmHg 42%
    18:00 +29°C° 0 mm 3 m/s 743 mmHg 46%
    19:00 +29°C° 0 mm 3 m/s 743 mmHg 49%
    20:00 +27°C° 0.4 mm 2 m/s 743 mmHg 57%
    21:00 +25°C° 0.4 mm 2 m/s 743 mmHg 65%
    22:00 +23°C° 0.4 mm 1 m/s 744 mmHg 72%
    23:00 +23°C° 0.2 mm 1 m/s 744 mmHg 74%

    21 Juillet, Dimanche

    Heure Température Précipitation Vent Pression Humidité
    00:00 +22°C° 0.2 mm 1 m/s 744 mmHg 76%
    01:00 +21°C° 0.2 mm 1 m/s 744 mmHg 78%
    02:00 +21°C° 0 mm 1 m/s 745 mmHg 79%
    03:00 +21°C° 0 mm 1 m/s 745 mmHg 80%
    04:00 +20°C° 0 mm 1 m/s 745 mmHg 81%
    05:00 +21°C° 0 mm 1 m/s 745 mmHg 79%
    06:00 +21°C° 0 mm 1 m/s 746 mmHg 78%
    07:00 +20°C° 0 mm 2 m/s 746 mmHg 76%
    08:00 +23°C° 0 mm 2 m/s 747 mmHg 66%
    09:00 +24°C° 0 mm 3 m/s 747 mmHg 57%
    10:00 +26°C° 0 mm 3 m/s 748 mmHg 47%
    11:00 +27°C° 0 mm 3 m/s 748 mmHg 45%
    12:00 +28°C° 0 mm 3 m/s 748 mmHg 42%
    13:00 +29°C° 0 mm 4 m/s 748 mmHg 39%
    14:00 +29°C° 0 mm 3 m/s 748 mmHg 39%
    15:00 +29°C° 0 mm 3 m/s 748 mmHg 40%
    16:00 +29°C° 0 mm 3 m/s 748 mmHg 40%
    17:00 +28°C° 0 mm 3 m/s 748 mmHg 43%
    18:00 +28°C° 0 mm 2 m/s 748 mmHg 47%
    19:00 +27°C° 0 mm 2 m/s 748 mmHg 50%
    20:00 +25°C° 0 mm 2 m/s 749 mmHg 56%
    21:00 +24°C° 0 mm 1 m/s 749 mmHg 61%
    22:00 +22°C° 0 mm 1 m/s 749 mmHg 67%
    23:00 +21°C° 0 mm 1 m/s 749 mmHg 70%

    22 Juillet, Lundi

    Heure Température Précipitation Vent Pression Humidité
    00:00 +21°C° 0 mm 1 m/s 749 mmHg 73%
    01:00 +20°C° 0 mm 1 m/s 749 mmHg 76%
    02:00 +19°C° 0 mm 1 m/s 749 mmHg 78%
    03:00 +19°C° 0 mm 1 m/s 749 mmHg 80%
    04:00 +19°C° 0 mm 1 m/s 749 mmHg 82%
    05:00 +19°C° 0 mm 1 m/s 749 mmHg 79%
    06:00 +20°C° 0 mm 1 m/s 749 mmHg 75%
    07:00 +21°C° 0 mm 1 m/s 749 mmHg 72%
    08:00 +23°C° 0 mm 1 m/s 749 mmHg 65%
    09:00 +25°C° 0 mm 2 m/s 749 mmHg 57%
    10:00 +27°C° 0 mm 2 m/s 749 mmHg 50%
    11:00 +28°C° 0 mm 2 m/s 749 mmHg 45%
    12:00 +30°C° 0 mm 2 m/s 749 mmHg 40%
    13:00 +31°C° 0 mm 1 m/s 749 mmHg 36%
    14:00 +32°C° 0 mm 1 m/s 748 mmHg 34%
    15:00 +32°C° 0 mm 1 m/s 748 mmHg 32%
    16:00 +33°C° 0 mm 1 m/s 748 mmHg 31%
    17:00 +31°C° 0 mm 2 m/s 748 mmHg 36%
    18:00 +30°C° 0 mm 2 m/s 747 mmHg 41%
    19:00 +29°C° 0 mm 2 m/s 747 mmHg 46%
    20:00 +28°C° 0 mm 2 m/s 748 mmHg 52%
    21:00 +26°C° 0 mm 2 m/s 748 mmHg 58%
    22:00 +24°C° 0 mm 1 m/s 748 mmHg 64%
    23:00 +23°C° 0 mm 1 m/s 748 mmHg 66%

    23 Juillet, Mardi

    Heure Température Précipitation Vent Pression Humidité
    00:00 +23°C° 0 mm 1 m/s 748 mmHg 69%
    01:00 +22°C° 0 mm 1 m/s 748 mmHg 71%
    02:00 +21°C° 0 mm 1 m/s 747 mmHg 73%
    03:00 +20°C° 0 mm 2 m/s 747 mmHg 76%
    04:00 +19°C° 0 mm 2 m/s 747 mmHg 78%
    05:00 +20°C° 0 mm 2 m/s 747 mmHg 75%
    06:00 +21°C° 0 mm 2 m/s 747 mmHg 71%
    07:00 +21°C° 0 mm 2 m/s 747 mmHg 68%
    08:00 +24°C° 0 mm 2 m/s 747 mmHg 61%
    09:00 +26°C° 0 mm 2 m/s 747 mmHg 55%
    10:00 +28°C° 0 mm 2 m/s 747 mmHg 48%
    11:00 +30°C° 0 mm 2 m/s 747 mmHg 44%
    12:00 +32°C° 0 mm 2 m/s 746 mmHg 39%
    13:00 +34°C° 0 mm 2 m/s 746 mmHg 35%
    14:00 +34°C° 0 mm 3 m/s 746 mmHg 35%
    15:00 +35°C° 0 mm 3 m/s 745 mmHg 34%
    16:00 +35°C° 0 mm 3 m/s 745 mmHg 34%
    17:00 +34°C° 0 mm 3 m/s 745 mmHg 37%
    18:00 +33°C° 0 mm 3 m/s 745 mmHg 41%
    19:00 +31°C° 0 mm 2 m/s 745 mmHg 45%
    20:00 +29°C° 0 mm 2 m/s 745 mmHg 50%
    21:00 +27°C° 0 mm 3 m/s 745 mmHg 55%
    22:00 +25°C° 0 mm 3 m/s 745 mmHg 59%
    23:00 +25°C° 0 mm 2 m/s 745 mmHg 62%
    Voir plus